NOAA 16 DEB

Satellite information

Favourite Embed

Satellite Type and Status

DEBRISIN ORBIT

Key statistics

Satellite NOAA 16 DEB at a glance.

Uptime

9168

Days in orbit

Revolutions

≈ 14.3

Per day

Orbit

SSO

Sun Synchronous Orbit

Inclination

98.7

Latest

Satellite identification and parameters

Extended collection of information and parameters for NOAA 16 DEB.

Object identification

Identified? True

Debris? True

Object name: NOAA 16 DEB

International designator: 2000-055NG

Object number (NORAD): 41532

Object ID (CCSDS): 41532

Country: UNITED STATES OF AMERICA (US)

Current information (Y/N): Y

RCS size: SMALL

Orbital parameters

Period: 100.569 minutes

Inclination: 98.7389 deg

SMA: 7163.661 km

Apoapsis: 794.171 km

Periapsis: 776.88 km

RAAN: 32.9131 deg

Eccentricy: 0.0012069

Argument of periapsis: 136.5158 deg

Mean anomaly: 223.6979 deg

Mean motion: 14.31859018 rev/day

Mean motion (dot): 0.00005426 rev/day2

B* drag term: 0.0020417 1/REarth

Two-line elements (TLE)

Creation date: Oct. 26, 2025, 2:36 p.m.

Reference frame: TEME

Reference center: EARTH

Epoch: Oct. 26, 2025, 5:04 a.m. UTC

TLE line 0: 0 NOAA 16 DEB

TLE line 1: 1 41532U 00055NG 25299.21175536 .00005426 00000-0 20417-2 0 9995

TLE line 2: 2 41532 98.7389 32.9131 0012069 136.5158 223.6979 14.31859018492785

Live tracking on map

Real-time ground track for satellite NOAA 16 DEB.

In-orbit conjunctions

A list of the most updated potential collisions computed for object NOAA 16 DEB.

Target Orbit TCA Probability of collision Miss distance Type
CZ-6A DEB LEO 2025-03-02 21:01:50 0.0001830297 928.0 (m) DEBRIS
FENGYUN 1C DEB SSO 2024-11-09 15:54:39 0.0004828174 309.0 (m) DEBRIS

Associated space launch

The NOAA K, L and M POES satellites begin the fifth generation of improved environmental monitoring in support of NOAA missions. The instrument payload has significant improvements and additions/deletions. The instrument changes have effected the spacecraft subsystems and data formats.

NOAA 16 DEB was lifted into orbit during the mission ‘Titan II SLV | NOAA 16’, on board a Titan II SLV space rocket.

The launch took place on Sept. 21, 2000, 10:22 a.m. from Space Launch Complex 4W.

For more information about the launch, click the button.

Launch to space Titan II SLV | NOAA 16
Titan II SLV | NOAA 16

Agency: N/A

Status: Launch Successful

Launch date: Sept. 21, 2000, 10:22 a.m. UTC

Rocket: Titan II SLV

Launch pad: Space Launch Complex 4W

Location: Vandenberg SFB, CA, USA

...

Latest news about this satellite

There are no fresh news available about this satellite. Check back as we update our databases every day.


Newsletter sign-up

Weekly statistics, charts and insights to help you stay on top of the space industry.